This is the latest recevied weather packets stored in our database for station/object K7YVO. If no packets are shown the sender has not sent any weather packets the latest 1 day(s).
| Time | Temp. | Humidity | Pressure | Rain* | Wind** | Luminosity | Snow |
|---|---|---|---|---|---|---|---|
| 1778038309 | 15.56° C | 80% | 1017.9 hPa | 0 mm | - | 0 W/m² | - |
| 1778037400 | 15.56° C | 80% | 1018 hPa | 0 mm | - | 2 W/m² | - |
| 1778037097 | 15.56° C | 79% | 1017.7 hPa | 0 mm | - | 3 W/m² | - |
| 1778036796 | 15.56° C | 79% | 1017.9 hPa | 0 mm | - | 5 W/m² | - |
| 1778036493 | 15.56° C | 78% | 1017.6 hPa | 0 mm | - | 7 W/m² | - |
| 1778035885 | 15.56° C | 77% | 1017.8 hPa | 0 mm | - | 10 W/m² | - |
| 1778035583 | 15.56° C | 77% | 1017.6 hPa | 0 mm | - | 11 W/m² | - |
| 1778035279 | 15.56° C | 77% | 1017.6 hPa | 0 mm | - | 14 W/m² | - |
| 1778034976 | 15.56° C | 77% | 1017.5 hPa | 0 mm | - | 18 W/m² | - |
| 1778034673 | 15.56° C | 77% | 1017.5 hPa | 0 mm | - | 20 W/m² | - |
| 1778033765 | 16.11° C | 77% | 1017.4 hPa | 0 mm | - | 29 W/m² | - |
| 1778033462 | 16.11° C | 76% | 1017.5 hPa | 0 mm | - | 32 W/m² | - |
| 1778033159 | 15.56° C | 77% | 1017.5 hPa | 0 mm | - | 37 W/m² | - |
| 1778032857 | 15.56° C | 77% | 1017.6 hPa | 0 mm | - | 42 W/m² | - |
| 1778032554 | 15.56° C | 78% | 1017.6 hPa | 0 mm | - | 48 W/m² | - |
| 1778032251 | 15.56° C | 77% | 1017.5 hPa | 0 mm | - | 53 W/m² | - |
| 1778031039 | 15.56° C | 76% | 1017.5 hPa | 0 mm | - | 77 W/m² | - |
| 1778030735 | 16.11° C | 76% | 1017.5 hPa | 0 mm | - | 82 W/m² | - |
| 1778030432 | 15.56° C | 78% | 1017.6 hPa | 0 mm | - | 80 W/m² | - |
| 1778030130 | 15.56° C | 78% | 1017.4 hPa | 0 mm | - | 81 W/m² | - |
| 1778029826 | 15.56° C | 77% | 1017.5 hPa | 0 mm | - | 79 W/m² | - |
| 1778028614 | 15.56° C | 77% | 1017.4 hPa | 0 mm | - | 70 W/m² | - |
| 1778028312 | 15.56° C | 77% | 1017.7 hPa | 0 mm | - | 64 W/m² | - |
| 1778027097 | 15.56° C | 77% | 1017.5 hPa | 0 mm | - | 83 W/m² | - |
| 1778026489 | 16.11° C | 76% | 1017.6 hPa | 0 mm | - | 81 W/m² | - |
* Rain latest hour (hover to see other rain measurements)
** Current wind speed in m/s (hover to see current wind gust speed)